Location: Jackson Park
(37.2862°N, 79.9123°W)
Time: 23:17:16
(UTC+00:00)

Transit 4A - Pass Details

Date: 15 May 2026
Orbit: 861 x 980 km, 66.8° (Epoch: 5 June)

Event Time Altitude Azimuth Distance (km) Brightness Sun altitude
Rises 12:03:52 0° 180° (S) 3,509 10.8 20.6°
Reaches altitude 10° 12:06:33 10° 171° (S) 2,591 10.3 21.2°
Maximum altitude 12:11:54 34° 108° (ESE) 1,481 10.4 22.2°
Drops below altitude 10° 12:17:26 10° 46° (NE) 2,679 11.3 23.3°
Sets 12:20:14 0° 37° (NE) 3,645 11.6 23.9°
